Location: Apeadero de Los Molinos-Guadarrama
(40.7091°N, 4.0689°W)
Time: 11:24:14
(UTC+00:00)

Terra - Pass Details

Date: 14 May 2021
Orbit: 701 x 703 km, 98.2° (Epoch: 18 June)

Event Time Altitude Azimuth Distance (km) Brightness Sun altitude
Exits shadow 23:42:21 12° 273° (W) 2,026 4.3 -30.0°
Drops below altitude 10° 23:44:00 10° 294° (WNW) 2,175 4.7 -30.0°
Sets 23:47:45 0° 324° (NW) 3,099 6.0 -30.1°
